Weather History for KLWM - March, 2013

Change the Weather History Date:

Thursday, March 21, 2013

  Actual Average Record
Temperature  
Mean Temperature 30 °F -  
Max Temperature 37 °F 46 °F 82 °F (2012)
Min Temperature 24 °F 28 °F 9 °F (1992)
Degree Days  
Heating Degree Days 34    
Moisture  
Dew Point 19 °F    
Average Humidity 63    
Maximum Humidity 82    
Minimum Humidity 33    
Precipitation  
Precipitation 0.00 in - - ()
Sea Level Pressure  
Sea Level Pressure 29.72 in    
Wind  
Wind Speed 4 mph (SSW)    
Max Wind Speed 7 mph    
Max Gust Speed -    
Visibility 10 miles    
Events      
Averages and records for this station are not official NWS values.
T = Trace of Precipitation, MM = Missing Value Source: NWS Daily Summary

Daily Weather History Graph

Daily Weather History Graph

Search for Another Location

Airport or City:

Trip Planner

Search our weather history database for the weather conditions in past years. The results will help you decide how hot, cold, wet, or windy it might be!

Date:

Astronomy

Mar. 21, 2013 Rise Set
Actual Time 6:45 AM EDT 6:58 PM EDT
Civil Twilight 6:17 AM EDT 7:26 PM EDT
Nautical Twilight 5:44 AM EDT 7:59 PM EDT
Astronomical Twilight 5:10 AM EDT 8:33 PM EDT
Moon 1:18 PM EDT (3/21) 3:12 AM EDT (3/21)
Length of Visible Light 13h 08m
Length of Day
12h 12m
Waxing Gibbous, 68% of the Moon is Illuminated
Mar 21
Waxing Gibbous
Mar 27
Full
Apr 3
Last Quarter
Apr 10
New
Apr 18
First Quarter

Hourly Weather History & Observations

Time (EDT) Temp. Windchill Dew Point Humidity Pressure Visibility Wind Dir Wind Speed Gust Speed Precip Events Conditions
12:54 AM 28.9 °F 22.8 °F 17.1 °F 61% 29.81 in 10.0 mi SW 5.8 mph - N/A   Clear
1:54 AM 28.4 °F 23.3 °F 17.6 °F 64% 29.81 in 10.0 mi SW 4.6 mph - N/A   Clear
2:54 AM 27.0 °F 20.5 °F 17.1 °F 66% 29.82 in 10.0 mi SSW 5.8 mph - N/A   Clear
3:54 AM 26.1 °F 20.5 °F 17.1 °F 69% 29.81 in 10.0 mi South 4.6 mph - N/A   Clear
4:54 AM 26.1 °F 19.4 °F 17.1 °F 69% 29.80 in 10.0 mi SW 5.8 mph - 0.00 in   Scattered Clouds
5:54 AM 25.0 °F 20.7 °F 17.1 °F 72% 29.79 in 10.0 mi SSW 3.5 mph - N/A   Mostly Cloudy
6:54 AM 24.1 °F - 17.1 °F 75% 29.81 in 10.0 mi Calm Calm - N/A   Overcast
7:54 AM 26.1 °F 21.9 °F 18.0 °F 71% 29.81 in 10.0 mi SW 3.5 mph - N/A   Overcast
8:54 AM 28.9 °F 22.8 °F 18.0 °F 64% 29.80 in 10.0 mi West 5.8 mph - N/A   Mostly Cloudy
9:54 AM 30.9 °F 25.2 °F 16.0 °F 54% 29.78 in 10.0 mi West 5.8 mph - N/A   Overcast
10:54 AM 33.1 °F 30.0 °F 10.9 °F 40% 29.77 in 10.0 mi Variable 3.5 mph - N/A   Overcast
11:54 AM 35.1 °F - 10.9 °F 37% 29.76 in 10.0 mi Calm Calm - N/A   Overcast
12:54 PM 35.1 °F - 10.0 °F 35% 29.73 in 10.0 mi Calm Calm - N/A   Overcast
1:54 PM 37.0 °F - 10.0 °F 33% 29.70 in 10.0 mi Calm Calm - N/A   Overcast
2:54 PM 37.0 °F 31.6 °F 14.0 °F 39% 29.67 in 10.0 mi NNE 6.9 mph - N/A   Overcast
3:54 PM 37.9 °F - 14.0 °F 38% 29.64 in 10.0 mi Calm Calm - N/A   Overcast
4:54 PM 37.9 °F 33.5 °F 16.0 °F 41% 29.63 in 10.0 mi South 5.8 mph - N/A   Overcast
5:54 PM 36.0 °F 31.1 °F 21.9 °F 57% 29.64 in 9.0 mi SE 5.8 mph - N/A   Overcast
6:54 PM 33.1 °F 27.7 °F 25.0 °F 72% 29.64 in 10.0 mi ESE 5.8 mph - 0.00 in   Overcast
7:50 PM 32.0 °F 28.7 °F 26.6 °F 80% 29.64 in 10.0 mi South 3.5 mph - N/A   Overcast
7:54 PM 32.0 °F - 27.0 °F 82% 29.64 in 10.0 mi Calm Calm - N/A   Overcast
8:54 PM 32.0 °F - 27.0 °F 82% 29.65 in 10.0 mi Calm Calm - N/A   Overcast
9:54 PM 32.0 °F - 27.0 °F 82% 29.65 in 10.0 mi Calm Calm - N/A   Overcast
10:33 PM 32.0 °F - 26.6 °F 80% 29.64 in 10.0 mi Calm Calm - N/A   Overcast
10:54 PM 32.0 °F 28.7 °F 27.0 °F 82% 29.64 in 10.0 mi SW 3.5 mph - N/A   Overcast
11:54 PM 30.9 °F 26.2 °F 26.1 °F 82% 29.63 in 10.0 mi WSW 4.6 mph - N/A   Overcast